Regional Weather Roundup
Issued by NWS State College, PA

Home | Current Version | Previous Version | Text Only | Print | Product List | Glossary On
Versions: 1 2 3 4 5 6 7 8 9 10 11 12 13 14 15 16 17 18 19 20 21 22 23 24 25 26 27 28 29 30 31 32 33 34 35 36 37 38 39 40 41 42 43 44 45 46 47 48 49 50
000
ASUS41 KCTP 040903
RWRCTP

REGIONAL WEATHER ROUNDUP
NATIONAL WEATHER SERVICE STATE COLLEGE PA
500 AM EDT SAT JUL 04 2015

Note: "fair" indicates few or no clouds below 12,000 feet with no
significant weather and/or obstructions to visibility.

* = STATION THAT DOES NOT REPORT PRECIPITATION /E.G. RAIN...SNOW...ETC/
    THUNDER OR FOG.

PAZ002>004-007>009-013>016-020>023-029>032-041000-
WESTERN PENNSYLVANIA

CITY           SKY/WX    TMP DP  RH WIND       PRES   REMARKS
ERIE           PTCLDY    58  53  84 CALM      29.89S
MEADVILLE      CLOUDY    62  55  77 NE3       29.90S
FRANKLIN*      CLOUDY    63  61  94 E5        29.91S
NEW CASTLE     PTSUNNY   66  66 100 CALM      29.89S
BEAVER COUNTY  NOT AVBL
BUTLER*        CLOUDY    64  63  94 NE3       29.89S
PITTSBURGH INT CLOUDY    66  64  93 NE6       29.86F FOG
PITTSBURGH     FOG       64  61  90 NW5       29.85F VSB 1/2
INDIANA*       CLOUDY    64  64 100 E3        29.91S FOG
LATROBE        NOT AVBL
WASHINGTON CO* NOT AVBL
$$

PAZ004>006-010>012-017>019-024>028-033>037-041-042-045-046-049>053-041000-
CENTRAL PENNSYLVANIA

CITY           SKY/WX    TMP DP  RH WIND       PRES   REMARKS
BRADFORD       CLOUDY    62  60  93 CALM      29.93S FOG
DUBOIS         CLOUDY    64  62  93 E6        29.89F FOG
CLEARFIELD     LGT RAIN  64  61  90 CALM      29.90F FOG
JOHNSTOWN      LGT RAIN  62  60  93 S5        29.90F FOG
ALTOONA        RAIN      63  61  93 SE6       29.90F FOG
STATE COLLEGE  RAIN      63  61  93 S3        29.91F
WILLIAMSPORT   HVY RAIN  65  63  93 E5        29.91S FOG
SELINSGROVE    LGT RAIN  65  60  84 SE9       29.92S
FT INDIANTOWN  LGT RAIN  62  61  94 NE2       29.93F
CAPITAL CITY   LGT RAIN  66  63  90 SE5       29.92S
HARRISBURG     LGT RAIN  67  63  87 SE5       29.91F
YORK           LGT RAIN  65  63  93 CALM      29.91F
$$

PAZ038>040-043-044-047-048-054-055-060>062-067>071-041000-
EASTERN PENNSYLVANIA

CITY           SKY/WX    TMP DP  RH WIND       PRES   REMARKS
SCRANTON       RAIN      64  58  80 VRB3      29.96R
MOUNT POCONO   NOT AVBL
ALLENTOWN      CLOUDY    70  62  76 CALM      29.94S
QUAKERTOWN*    CLOUDY    66  64  94 NE3       29.95F
READING        LGT RAIN  66  63  90 NE3       29.93F
LANCASTER      CLOUDY    66  63  90 NE5       29.92F
COATESVILLE    CLOUDY    66  66 100 CALM      29.94F FOG
POTTSTOWN      CLOUDY    67  64  90 CALM      29.95S
BLUE BELL      CLOUDY    68  64  88 CALM      29.93S
DOYLESTOWN     CLOUDY    65  64  97 CALM      29.94S
WILLOW GROVE   NOT AVBL
NORTH PHILA    CLOUDY    69  63  81 NE5       29.94F
PHILADELPHIA   CLOUDY    70  66  87 NE3       29.92F
$$


USA.gov is the U.S. government's official web portal to all federal, state and local government web resources and services.